Home   Weather   Nukualofa   Past weeks

Flag for Tonga Past Weather in Nukualofa, Tonga — Yesterday and Last 2 Weeks

Now
84 °F

Broken clouds.


Feels Like: 94 °F
Forecast: 74 / 86 °F
Wind: No wind

Location: Fua'Amotu

Current Time: Jan 23, 2017 at 5:59:24 pm

Latest Report: Jan 23, 2017 at 5:00 pm


Visibility: N/A

Pressure: 29.77 "Hg

Humidity: 79%

Dew Point: 77 °F

Location of NukualofaLocation

Past Weather in Nukualofa — Graph

°F

Nukualofa Temperature Yesterday

Maximum temperature yesterday: 91 °F (at 1:00 pm)
Minimum temperature yesterday: 75 °F (at 11:00 pm)
Average temperature yesterday: 84 °F

High & Low Weather Summary for the Past Weeks

 TemperatureHumidityPressure
High91 °F (Jan 22, 1:00 pm)100% (Jan 9, 12:00 am)29.98 "Hg (Jan 9, 12:00 am)
Low72 °F (Jan 20, 2:00 am)49% (Jan 22, 1:00 pm)29.65 "Hg (Jan 19, 4:00 am)
Average80 °F82%29.81 "Hg
* Reported Jan 8 6:00 pm — Jan 23 5:00 pm, Nukualofa, Weather by CustomWeather, © 2017

Note: Actual official high and low records may vary slightly from our data, if they occured in-between our weather recording intervals... More about our weather records

Advertising

Nukualofa Weather History for the Previous 24 Hours

Scroll right to see more
 ConditionsComfort  
Time TempWeatherWind HumidityBarometerVisibility
5:00 pm
Mon, Jan 23
84 °FBroken clouds.No wind79%29.77 "HgN/A
4:00 pm81 °FSprinkles. Partly sunny.No wind89%29.77 "HgN/A
3:00 pm79 °FSprinkles. Broken clouds.No wind84%29.77 "HgN/A
2:00 pm79 °FLight rain. Broken clouds.No wind94%29.77 "Hg1 mi
1:00 pm79 °FSprinkles. Broken clouds.No wind94%29.80 "HgN/A
12:00 pm81 °FSprinkles. Partly sunny.No wind89%29.80 "HgN/A
11:00 am82 °FSprinkles. Partly sunny.No wind84%29.80 "HgN/A
10:00 am86 °FScattered clouds.3 mph66%29.80 "HgN/A
9:00 am82 °FScattered clouds.No wind74%29.80 "HgN/A
8:00 am77 °FPassing clouds.No wind94%29.80 "HgN/A
7:00 am73 °FPassing clouds.No wind94%29.80 "HgN/A
6:00 am72 °FPassing clouds.No wind94%29.77 "HgN/A
5:00 am73 °FPassing clouds.No wind100%29.77 "HgN/A
4:00 am73 °FPassing clouds.No wind100%29.77 "HgN/A
3:00 am73 °FPassing clouds.No wind94%29.77 "HgN/A
2:00 am73 °FPassing clouds.No wind94%29.80 "HgN/A
1:00 am73 °FPassing clouds.No wind94%29.80 "HgN/A
12:00 am75 °FPassing clouds.No wind89%29.83 "HgN/A
11:00 pm
Sun, Jan 22
75 °FPassing clouds.No wind94%29.83 "HgN/A
10:00 pm77 °FPassing clouds.No wind89%29.83 "HgN/A
9:00 pm79 °FPassing clouds.No wind84%29.80 "HgN/A
8:00 pm82 °FPassing clouds.No wind79%29.80 "HgN/A
7:00 pm86 °FPassing clouds.9 mph66%29.77 "HgN/A
6:00 pm88 °FPassing clouds.12 mph62%29.74 "HgN/A
5:00 pm90 °FPassing clouds.14 mph55%29.74 "HgN/A
Weather by CustomWeather, © 2017

See weather overviewHow to use our weather pages